Flag for Switzerland Weather past 2 weeks in Geneva, Geneva, Switzerland

Now
47 °F

Cool.


Feels Like: 47 °F
Forecast: 45 / 68 °F
Wind: 1 mph from Northwest

Location: Geneve-Cointrin

Current Time: May 7, 2015 at 3:41:42 AM

Latest Report: May 7, 2015 at 3:00 AM


Visibility: N/A

Pressure: 30.18 "Hg

Humidity: 83%

Dew point: 42 °F

Location of GenevaLocation

Historic Weather in Geneva — Graph

°F

Geneva temperature yesterday

Maximum temperature yesterday: 68 °F (at 4:00 PM)
Minimum temperature yesterday: 52 °F (at 7:00 AM)
Average temperature yesterday: 60 °F

Past Weeks' High & Low Weather Summary

 TemperatureHumidityPressure
High73 °F (Apr 24, 4:00 PM)95% (May 4, 3:00 AM)30.34 "Hg (May 4, 3:00 AM)
Low37 °F (Apr 29, 5:00 AM)20% (Apr 24, 4:00 PM)29.47 "Hg (Apr 27, 4:00 PM)
Average57 °F72%29.92 "Hg
* Reported Apr 22 2:00 AM — May 7 2:00 AM, Geneva, Weather by CustomWeather, © 2015

Note: Actual official high and low records may vary slightly from our data, if they occured in-between our weather recording intervals... More about our weather records

Advertising

Geneva weather history for previous 24 hours

 ConditionsComfort  
Time TempWeatherWind HumidityBarometerVisibility
2:00 AM
Thu, May 7
49 °FPassing clouds.2 mph77%30.17 "Hg19 mi
1:00 AM52 °FCool.2 mph68%30.16 "HgN/A
10:00 PM
Wed, May 6
56 °FRefreshingly cool.3 mph58%30.11 "HgN/A
9:00 PM58 °FRefreshingly cool.3 mph57%30.07 "HgN/A
8:00 PM63 °FScattered clouds.7 mph47%30.04 "Hg31 mi
7:00 PM65 °FMild.7 mph46%30.01 "HgN/A
6:00 PM65 °FMild.8 mph44%30.00 "HgN/A
5:00 PM67 °FPartly sunny.8 mph44%29.99 "Hg28 mi
4:00 PM68 °FMild.9 mph40%29.99 "HgN/A
3:00 PM67 °FMild.7 mph46%30.01 "HgN/A
2:00 PM67 °FPartly sunny.10 mph46%30.01 "Hg28 mi
1:00 PM65 °FMild.8 mph55%30.03 "HgN/A
12:00 PM62 °FRefreshingly cool.3 mph53%30.04 "HgN/A
11:00 AM59 °FPassing clouds.2 mph63%30.06 "Hg19 mi
10:00 AM58 °FCool.3 mph69%30.06 "HgN/A
9:00 AM56 °FCool.1 mph82%30.06 "HgN/A
8:00 AM53 °FScattered clouds.1 mph89%30.06 "Hg12 mi
7:00 AM52 °FCool.2 mph94%30.06 "HgN/A
6:00 AM53 °FCool.1 mph92%30.04 "HgN/A
4:00 AM53 °FCool.2 mph92%30.02 "HgN/A
3:00 AM54 °FCool.5 mph88%29.98 "HgN/A
Weather by CustomWeather, © 2015

See weather overviewHow to use our weather pages